EZY5816 EGJJ-EGGD

Flight info

Callsign EZY5816
Flight time N/A
Altitude 10000
Route SKERY L22 EMWIP P16 FIMCA N22 BHD N864 DAWLY
Aircraft A320/M-SDE3FGHIRWY/LB1

Departure

Time 2026-05-04 19:38
Airport Jersey Airport (EGJJ)

Arrival

Time N/A
Airport Bristol Airport (EGGD)
Time Latitude Longitude Altitude Speed Heading
2026-05-04 19:15 49.20551 -2.19806 284 ft 0 kts 174°
2026-05-04 19:27 49.20556 -2.19807 284 ft 2 kts 174°
2026-05-04 19:27 49.20560 -2.19808 284 ft 2 kts 174°
2026-05-04 19:28 49.20577 -2.19810 286 ft 2 kts 174°
2026-05-04 19:28 49.20595 -2.19811 291 ft 3 kts 201°
2026-05-04 19:28 49.20610 -2.19797 287 ft 3 kts 238°
2026-05-04 19:28 49.20613 -2.19791 286 ft 0 kts 248°
2026-05-04 19:31 49.20612 -2.19795 287 ft 3 kts 252°
2026-05-04 19:31 49.20601 -2.19914 284 ft 0 kts 261°
2026-05-04 19:31 49.20600 -2.19915 284 ft 1 kts 259°
2026-05-04 19:32 49.20559 -2.19933 284 ft 8 kts 170°
2026-05-04 19:32 49.20523 -2.19960 284 ft 5 kts 248°
2026-05-04 19:32 49.20534 -2.20069 290 ft 24 kts 285°
2026-05-04 19:32 49.20576 -2.20288 284 ft 20 kts 282°
2026-05-04 19:33 49.20614 -2.20490 284 ft 16 kts 282°
2026-05-04 19:33 49.20620 -2.20518 289 ft 0 kts 286°
2026-05-04 19:36 49.20622 -2.20529 286 ft 5 kts 280°
2026-05-04 19:36 49.20625 -2.20585 284 ft 10 kts 275°
2026-05-04 19:36 49.20679 -2.20699 284 ft 12 kts 21°
2026-05-04 19:36 49.20710 -2.20588 283 ft 13 kts 83°
2026-05-04 19:37 49.20715 -2.20527 284 ft 0 kts 83°
2026-05-04 19:37 49.20718 -2.20493 284 ft 19 kts 81°
2026-05-04 19:38 49.20779 -2.19771 287 ft 114 kts 83°
2026-05-04 19:38 49.20891 -2.18299 678 ft 150 kts 83°
2026-05-04 19:38 49.20996 -2.16684 1535 ft 161 kts 82°
2026-05-04 19:38 49.21129 -2.14833 2247 ft 188 kts 82°
2026-05-04 19:39 49.21341 -2.12730 3102 ft 213 kts 72°
2026-05-04 19:39 49.22044 -2.10605 3824 ft 238 kts 51°
2026-05-04 19:39 49.23365 -2.08928 4418 ft 257 kts 26°
2026-05-04 19:39 49.25108 -2.08218 5325 ft 264 kts
2026-05-04 19:40 49.26925 -2.08679 6278 ft 270 kts 338°
2026-05-04 19:40 49.28484 -2.10321 7168 ft 277 kts 315°
2026-05-04 19:40 49.29804 -2.12498 8096 ft 281 kts 313°
2026-05-04 19:40 49.31137 -2.14730 8977 ft 286 kts 313°
2026-05-04 19:41 49.32498 -2.17018 9728 ft 297 kts 312°
2026-05-04 19:41 49.33887 -2.19355 9940 ft 295 kts 312°
2026-05-04 19:41 49.35343 -2.21553 9995 ft 294 kts 327°
2026-05-04 19:41 49.37214 -2.22560 9999 ft 291 kts 359°
2026-05-04 19:42 49.39161 -2.21906 10009 ft 289 kts 27°
2026-05-04 19:42 49.40928 -2.20436 10001 ft 290 kts 25°
2026-05-04 19:42 49.42927 -2.19954 10002 ft 291 kts 354°
2026-05-04 19:42 49.44905 -2.20426 9999 ft 292 kts 356°
2026-05-04 19:43 49.46902 -2.20099 10007 ft 290 kts 20°
2026-05-04 19:43 49.48657 -2.18626 10002 ft 288 kts 39°
2026-05-04 19:43 49.50066 -2.16449 10006 ft 287 kts 54°
2026-05-04 19:43 49.51057 -2.13804 10011 ft 286 kts 68°
2026-05-04 19:44 49.51644 -2.10895 10004 ft 285 kts 79°
2026-05-04 19:44 49.51915 -2.07882 10009 ft 285 kts 86°
2026-05-04 19:44 49.51731 -2.04889 10055 ft 283 kts 113°
2026-05-04 19:44 49.50487 -2.02603 10163 ft 284 kts 149°
2026-05-04 19:45 49.48595 -2.01872 10295 ft 286 kts 185°
2026-05-04 19:45 49.46799 -2.03004 10575 ft 280 kts 222°
2026-05-04 19:45 49.45601 -2.05251 11120 ft 263 kts 232°
2026-05-04 19:45 49.44557 -2.07451 11661 ft 245 kts 233°
2026-05-04 19:46 49.43568 -2.09449 12204 ft 225 kts 230°
2026-05-04 19:46 49.42647 -2.11305 12539 ft 213 kts 232°
2026-05-04 19:46 49.41782 -2.13188 12422 ft 222 kts 234°
2026-05-04 19:46 49.40910 -2.15233 12285 ft 232 kts 237°
2026-05-04 19:47 49.40103 -2.17295 12632 ft 217 kts 239°
2026-05-04 19:47 49.39395 -2.19268 12852 ft 209 kts 240°
2026-05-04 19:47 49.38701 -2.21370 12400 ft 235 kts 243°
2026-05-04 19:47 49.38002 -2.23689 12412 ft 238 kts 245°
2026-05-04 19:48 49.37652 -2.26147 12573 ft 234 kts 270°
2026-05-04 19:48 49.38135 -2.28498 12469 ft 240 kts 313°
2026-05-04 19:48 49.39427 -2.30168 12489 ft 238 kts 323°
2026-05-04 19:48 49.40631 -2.31646 13202 ft 207 kts 322°
2026-05-04 19:49 49.41746 -2.33073 13016 ft 220 kts 321°
2026-05-04 19:49 49.42996 -2.34726 12565 ft 245 kts 320°
2026-05-04 19:49 49.44194 -2.36378 13221 ft 214 kts 319°
2026-05-04 19:49 49.45252 -2.37903 13357 ft 213 kts 318°
2026-05-04 19:50 49.46407 -2.39622 12734 ft 247 kts 316°
2026-05-04 19:50 49.47587 -2.41448 13190 ft 225 kts 315°
2026-05-04 19:50 49.48603 -2.43090 13638 ft 209 kts 314°